Harlingen, TX

5:04 PM CST on November 23, 2017 (GMT -0600)
Valley International

Weather History for KHRL - October, 2011

Change the Weather History Date:

Friday, October 14, 2011

  Actual Average Record
Temperature  
Mean Temperature 77 °F 76 °F  
Max Temperature 93 °F 87 °F 98 °F (1931)
Min Temperature 60 °F 66 °F 49 °F (1977)
Degree Days  
Heating Degree Days 0 0  
Month to date heating degree days 0 0  
Since 1 July heating degree days 0 0  
Cooling Degree Days 12 12  
Month to date cooling degree days 217 179  
Year to date cooling degree days 4273 3608  
Growing Degree Days 26 (Base 50)    
Moisture  
Dew Point 60 °F    
Average Humidity 63    
Maximum Humidity 100    
Minimum Humidity 26    
Precipitation  
Precipitation 0.00 in 0.10 in 3.20 in (1932)
Month to date precipitation 0.24 1.24  
Year to date precipitation 6.66 20.67  
Sea Level Pressure  
Sea Level Pressure 29.92 in    
Wind  
Wind Speed 6 mph (North)    
Max Wind Speed 16 mph    
Max Gust Speed 22 mph    
Visibility 8 miles    
Events      
T = Trace of Precipitation, MM = Missing Value Source: NWS Daily Summary

Daily Weather History Graph

Daily Weather History Graph

Search for Another Location

Airport or City:

Trip Planner

Search our weather history database for the weather conditions in past years. The results will help you decide how hot, cold, wet, or windy it might be!

Date:

Astronomy

Oct. 14, 2011 Rise Set
Actual Time 7:29 AM CDT 7:03 PM CDT
Civil Twilight 7:05 AM CDT 7:27 PM CDT
Nautical Twilight 6:38 AM CDT 7:53 PM CDT
Astronomical Twilight 6:12 AM CDT 8:20 PM CDT
Moon 8:38 PM CDT (10/14) 9:39 AM CDT (10/14)
Length of Visible Light 12h 21m
Length of Day
11h 34m
Waning Gibbous, 94% of the Moon is Illuminated
Oct 14
Waning Gibbous
Oct 19
Last Quarter
Oct 26
New
Nov 2
First Quarter
Nov 10
Full

Hourly Weather History & Observations

Time (CDT) Temp. Heat Index Dew Point Humidity Pressure Visibility Wind Dir Wind Speed Gust Speed Precip Events Conditions
12:52 AM 66.0 °F - 64.0 °F 93% 29.90 in 7.0 mi Calm Calm - N/A   Clear
1:52 AM 66.9 °F - 64.0 °F 90% 29.91 in 10.0 mi West 3.5 mph - N/A   Clear
2:52 AM 64.9 °F - 63.0 °F 93% 29.91 in 7.0 mi WNW 3.5 mph - N/A   Clear
3:37 AM 64.4 °F - 62.6 °F 94% 29.90 in 1.8 mi NW 3.5 mph - N/A   Clear
3:52 AM 64.9 °F - 64.0 °F 97% 29.91 in 2.0 mi NW 3.5 mph - N/A   Clear
4:03 AM 64.4 °F - 62.6 °F 94% 29.90 in 0.8 mi NW 3.5 mph - N/A   Clear
4:14 AM 64.4 °F - 62.6 °F 94% 29.90 in 2.5 mi NW 3.5 mph - N/A   Clear
4:21 AM 62.6 °F - 62.6 °F 100% 29.90 in 4.0 mi NW 3.5 mph - N/A   Clear
4:52 AM 62.1 °F - 60.1 °F 93% 29.90 in 6.0 mi NW 5.8 mph - N/A   Clear
5:52 AM 62.1 °F - 59.0 °F 90% 29.91 in 10.0 mi NNW 5.8 mph - N/A   Clear
6:52 AM 60.1 °F - 57.9 °F 93% 29.92 in 10.0 mi NW 5.8 mph - N/A   Clear
7:52 AM 60.8 °F - 59.0 °F 94% 29.94 in 9.0 mi NW 4.6 mph - N/A   Clear
8:52 AM 68.0 °F - 64.9 °F 90% 29.96 in 10.0 mi NW 4.6 mph - N/A   Clear
9:52 AM 77.0 °F - 66.9 °F 71% 29.98 in 10.0 mi NNW 5.8 mph - N/A   Clear
10:52 AM 82.0 °F 84.1 °F 66.0 °F 58% 29.98 in 10.0 mi Variable 3.5 mph - N/A   Clear
11:52 AM 86.0 °F 85.7 °F 60.1 °F 41% 29.98 in 10.0 mi Variable 3.5 mph - N/A   Clear
12:52 PM 89.1 °F 88.8 °F 60.1 °F 38% 29.96 in 10.0 mi Variable 4.6 mph 16.1 mph N/A   Clear
1:52 PM 91.4 °F 89.9 °F 57.2 °F 31% 29.92 in 10.0 mi Variable 6.9 mph - N/A   Clear
2:52 PM 91.0 °F - 52.0 °F 26% 29.89 in 10.0 mi East 10.4 mph 21.9 mph N/A   Clear
3:52 PM 91.9 °F 89.5 °F 53.1 °F 27% 29.88 in 10.0 mi Variable 6.9 mph - N/A   Clear
4:52 PM 91.0 °F 88.5 °F 53.1 °F 27% 29.88 in 10.0 mi NE 8.1 mph - N/A   Clear
5:52 PM 87.1 °F 85.3 °F 55.0 °F 33% 29.88 in 10.0 mi East 13.8 mph - N/A   Clear
6:52 PM 81.0 °F 81.1 °F 57.9 °F 45% 29.89 in 10.0 mi East 10.4 mph - N/A   Clear
7:52 PM 73.9 °F - 57.9 °F 57% 29.91 in 10.0 mi East 8.1 mph - N/A   Clear
8:52 PM 70.0 °F - 57.9 °F 65% 29.93 in 10.0 mi East 4.6 mph - N/A   Clear
9:52 PM 70.0 °F - 59.0 °F 68% 29.95 in 10.0 mi East 5.8 mph - N/A   Clear
10:52 PM 66.0 °F - 60.1 °F 81% 29.96 in 10.0 mi East 6.9 mph - N/A   Clear
11:52 PM 64.9 °F - 57.9 °F 78% 29.96 in 10.0 mi ESE 4.6 mph - N/A   Clear